Temp
0 1 -2 -2 -1 -5 -4 -2 -4 -0 -4 -2 -8 -10 -12 -13 -12 -9 -10 -9 -9 -9 -9 -9 -9 -9 -9 -8 -8 -8 -8 -7 -7 -6 -5 -3 1 3 5 10 10 10 10 10
-3 -2 -1 -1 -0 -0 -2 -3 -2 -3 -6 -11 -13 -16 -13 -13 -11 -9 -9 -9 -9 -9 -9 -9 -9 -9 -9 -9 -9 -8 -8 -8 -7 -7 -6 -4 -1 1 3 7 9 9 9 9
0 -9 -6 -3 -1 -1 -4 -11 -5 -8 -5 -14 -14 -10 -12 -13 -11 -11 -11 -10 -10 -10 -10 -10 -10 -10 -10 -10 -9 -9 -8 -8 -8 -7 -7 -5 -4 -1 0 4 9 9 9 9
-1 -6 -2 -2 -11 -10 -5 -8 -12 -13 -12 -13 -14 -15 -17 -16 -14 -13 -11 -10 -11 -11 -11 -11 -10 -10 -10 -10 -10 -9 -9 -9 -9 -8 -7 -6 -4 -3 -1 1 7 8 9 8
0 -4 -4 0 -8 -8 -7 -4 -9 -8 -12 -11 -12 -17 -16 -13 -15 -16 -16 -14 -12 -12 -11 -11 -11 -11 -11 -10 -10 -10 -10 -9 -9 -9 -8 -6 -5 -4 -2 -1 4 8 8 8
-3 -2 -3 -4 -12 -17 -11 -4 -11 -10 -11 -11 -10 -11 -13 -13 -15 -15 -12 -12 -12 -11 -11 -11 -11 -11 -11 -11 -11 -10 -10 -10 -10 -9 -8 -7 -5 -5 -3 -1 0 5 7 7
1 1 -2 -8 -12 -14 -4 -4 -14 -15 -14 -13 -12 -13 -15 -16 -13 -12 -12 -12 -11 -12 -12 -12 -12 -12 -12 -11 -11 -11 -11 -10 -10 -9 -8 -6 -6 -5 -4 -2 -0 3 7 7
-0 -1 -1 -9 -10 -5 -8 -15 -16 -17 -16 -15 -15 -15 -14 -13 -13 -13 -13 -13 -13 -13 -13 -12 -12 -13 -13 -12 -12 -11 -11 -11 -10 -9 -8 -6 -6 -5 -4 -2 -1 2 5 6
-1 -0 -9 -8 -10 -13 -13 -12 -12 -13 -15 -15 -15 -14 -14 -14 -15 -14 -14 -14 -13 -13 -13 -13 -13 -13 -13 -13 -12 -12 -12 -11 -10 -9 -8 -7 -6 -5 -4 -3 -2 0 4 4
-2 -7 -8 -9 -11 -11 -11 -11 -12 -12 -14 -16 -17 -17 -17 -17 -16 -16 -15 -14 -14 -14 -15 -14 -14 -14 -14 -13 -13 -12 -12 -11 -11 -9 -7 -7 -7 -6 -5 -3 -3 -2 0 4
-5 -9 -10 -10 -10 -10 -12 -12 -13 -13 -14 -15 -16 -16 -19 -20 -19 -16 -16 -15 -15 -16 -16 -15 -15 -14 -13 -13 -13 -13 -12 -12 -11 -10 -8 -8 -7 -6 -5 -4 -3 -2 -2 -0
-3 -8 -8 -9 -10 -11 -12 -13 -14 -15 -16 -16 -17 -16 -16 -17 -16 -16 -16 -16 -16 -16 -16 -16 -15 -14 -13 -12 -13 -13 -13 -12 -11 -9 -9 -8 -7 -6 -5 -4 -3 -2 -2 -1
-10 -13 -13 -14 -14 -14 -15 -15 -15 -18 -17 -18 -18 -18 -18 -18 -16 -14 -16 -16 -17 -17 -16 -16 -15 -15 -12 -13 -12 -12 -13 -12 -10 -9 -9 -8 -8 -7 -6 -5 -4 -3 -2 -1
-15 -14 -14 -14 -16 -17 -17 -18 -16 -18 -19 -19 -19 -19 -19 -19 -18 -18 -18 -17 -17 -17 -16 -16 -15 -14 -12 -13 -12 -12 -12 -11 -10 -9 -9 -9 -8 -8 -7 -6 -5 -4 -2 -2
-19 -19 -19 -21 -21 -21 -20 -20 -19 -21 -22 -22 -21 -21 -21 -22 -21 -19 -17 -17 -17 -17 -16 -15 -15 -13 -12 -12 -12 -12 -12 -12 -10 -10 -9 -9 -9 -8 -7 -6 -5 -5 -4 -2
-21 -22 -22 -22 -24 -25 -25 -26 -26 -26 -28 -26 -25 -22 -21 -21 -20 -19 -17 -17 -18 -19 -16 -16 -15 -13 -13 -13 -12 -13 -12 -11 -10 -10 -10 -10 -9 -9 -7 -7 -6 -5 -4 -4
-22 -22 -23 -24 -25 -27 -27 -29 -29 -29 -28 -27 -24 -22 -22 -21 -20 -19 -17 -17 -17 -16 -16 -15 -14 -13 -12 -13 -12 -12 -12 -12 -11 -11 -11 -10 -10 -9 -8 -7 -6 -5 -5 -4
-28 -30 -29 -28 -28 -29 -29 -29 -27 -26 -27 -23 -24 -23 -23 -22 -24 -20 -18 -17 -16 -15 -14 -14 -14 -13 -13 -12 -12 -11 -12 -12 -13 -12 -12 -11 -10 -9 -9 -8 -7 -6 -5 -4
-27 -29 -29 -27 -26 -28 -29 -28 -25 -24 -24 -24 -24 -24 -22 -22 -20 -19 -18 -18 -17 -17 -15 -14 -14 -13 -13 -13 -12 -12 -12 -13 -13 -13 -12 -11 -10 -10 -9 -8 -7 -7 -6 -6
-30 -27 -26 -26 -26 -26 -25 -24 -24 -24 -23 -24 -23 -23 -22 -20 -19 -18 -18 -18 -17 -16 -15 -14 -14 -13 -13 -13 -12 -13 -14 -14 -14 -13 -13 -11 -11 -10 -9 -9 -8 -8 -7 -6
-31 -28 -27 -27 -26 -24 -24 -24 -24 -24 -23 -23 -24 -23 -21 -19 -18 -18 -18 -18 -16 -16 -14 -14 -14 -14 -12 -14 -14 -14 -14 -14 -14 -14 -13 -13 -12 -11 -10 -9 -9 -8 -8 -7
-30 -30 -27 -26 -26 -25 -23 -23 -24 -24 -23 -23 -21 -20 -19 -18 -18 -18 -18 -18 -17 -15 -15 -15 -14 -13 -11 -14 -14 -15 -15 -15 -14 -14 -13 -13 -12 -11 -10 -10 -9 -9 -8 -8
-28 -26 -25 -26 -26 -24 -23 -23 -22 -23 -22 -22 -21 -20 -19 -19 -18 -19 -19 -18 -17 -16 -16 -16 -14 -12 -13 -15 -16 -16 -16 -15 -14 -14 -13 -13 -12 -11 -11 -10 -9 -9 -9 -8
-26 -25 -25 -25 -25 -25 -27 -22 -22 -21 -21 -20 -20 -19 -19 -19 -19 -18 -18 -18 -17 -15 -16 -16 -14 -14 -15 -16 -16 -16 -16 -15 -15 -14 -14 -13 -12 -12 -11 -10 -10 -10 -9 -9
-24 -24 -25 -25 -26 -25 -23 -22 -22 -21 -21 -20 -20 -20 -19 -19 -20 -19 -18 -18 -18 -17 -17 -17 -16 -15 -17 -17 -17 -17 -16 -16 -15 -14 -14 -13 -13 -12 -11 -11 -10 -10 -10 -9
-24 -24 -23 -23 -23 -22 -22 -23 -23 -21 -20 -20 -20 -20 -20 -20 -19 -19 -19 -19 -18 -18 -18 -18 -18 -17 -17 -17 -17 -17 -17 -16 -15 -15 -14 -14 -13 -12 -12 -11 -11 -10 -10 -10
-23 -21 -23 -22 -22 -22 -21 -21 -22 -21 -20 -20 -20 -20 -20 -20 -20 -20 -19 -19 -19 -19 -19 -18 -18 -18 -17 -18 -17 -17 -17 -16 -16 -15 -14 -14 -14 -13 -12 -12 -11 -11 -11 -10
Height
795 791 809 804 795 818 816 794 810 761 791 771 792 799 804 802 798 793 795 791 788 784 778 773 766 759 751 742 734 726 721 715 708 703 695 690 673 677 681 680 680 685 693 700
808 796 794 790 775 778 783 790 784 784 792 792 797 804 800 797 792 789 790 789 786 783 779 773 768 762 754 743 734 730 723 713 704 701 693 684 655 677 674 674 677 678 684 690
780 834 814 791 763 761 776 807 782 801 766 795 799 789 792 791 788 788 788 786 783 781 777 772 767 762 755 747 737 726 719 710 714 707 694 672 675 682 676 673 671 675 676 685
786 819 791 752 788 785 769 780 792 795 786 788 789 792 793 790 790 787 784 782 781 777 774 769 763 757 752 746 739 733 728 721 715 705 689 679 681 674 672 665 665 669 672 676
773 799 770 739 774 778 772 756 765 768 781 780 785 795 793 786 785 785 783 779 777 774 770 765 760 754 747 740 737 733 717 712 707 701 688 687 673 670 668 666 660 663 667 670
785 772 773 753 778 787 775 753 758 759 767 775 778 788 783 782 782 780 779 775 772 769 766 763 758 751 745 737 729 722 719 714 708 700 694 681 667 668 669 664 661 662 663 666
741 740 741 754 768 780 762 744 763 767 771 774 777 780 781 780 779 777 776 773 769 766 763 760 756 750 745 738 731 723 717 717 711 699 676 664 668 676 671 664 661 658 657 663
743 742 732 751 767 752 746 762 765 769 772 774 775 776 778 777 777 775 774 771 767 763 759 757 754 750 744 739 732 722 715 701 682 678 686 681 681 675 671 665 659 660 659 656
723 710 738 738 742 747 751 752 756 758 766 767 771 772 774 775 775 773 771 769 765 762 757 753 751 748 743 737 731 724 717 711 708 703 693 692 683 681 667 660 654 650 644 646
719 729 734 737 744 744 747 749 753 755 761 766 770 771 773 773 773 771 769 767 764 760 755 751 748 744 741 734 728 722 718 710 702 690 690 681 676 668 652 651 651 643 644 652
719 736 738 738 738 741 746 750 753 757 760 763 767 769 770 772 770 768 766 764 762 759 754 749 745 740 737 731 725 718 713 709 703 692 685 662 662 660 660 663 655 652 652 653
701 720 721 728 733 741 746 751 755 758 762 763 764 767 767 767 767 765 763 761 759 756 752 747 742 737 732 729 726 722 715 707 699 687 668 674 672 661 660 651 653 654 655 652
726 735 736 740 744 747 750 754 758 761 761 763 764 765 766 766 764 762 761 759 756 754 749 744 740 735 730 726 720 714 709 705 694 691 687 677 670 666 663 659 662 660 654 650
738 739 743 745 749 753 755 758 759 762 763 763 764 764 764 764 763 761 759 757 753 750 747 742 737 733 730 726 721 717 713 706 702 693 683 676 678 668 675 672 662 655 649 645
747 747 747 752 755 758 760 761 763 765 765 765 765 764 763 762 761 759 756 754 751 747 744 740 734 730 727 723 719 713 705 700 695 686 681 679 671 673 675 664 659 656 652 649
752 753 754 757 762 763 763 766 768 768 767 765 764 763 761 760 758 756 754 752 749 745 740 737 733 728 724 720 715 710 705 699 694 689 685 682 679 679 676 670 664 659 647 644
756 760 761 763 765 766 766 767 766 766 766 765 762 761 759 757 755 752 751 749 747 743 738 735 731 726 723 720 715 710 706 702 701 696 693 690 688 683 675 670 664 654 642 644
752 753 756 757 762 765 766 765 765 764 764 763 760 758 756 755 753 750 749 747 744 739 736 732 728 724 721 718 714 710 706 704 701 696 691 688 682 677 669 665 654 650 644 643
753 755 756 756 758 761 762 762 762 762 762 760 758 755 754 751 749 748 747 745 741 738 733 729 725 723 718 715 712 708 705 703 699 693 690 685 679 671 666 659 655 652 650 645
755 755 755 757 758 759 759 760 760 760 758 757 755 752 750 747 746 745 744 742 740 737 733 728 724 719 715 711 709 704 701 698 696 690 686 680 675 670 666 661 658 654 651 646
754 754 755 757 757 757 758 758 758 757 755 753 752 749 748 745 744 743 742 740 736 734 731 728 724 718 713 711 706 702 698 695 691 687 682 678 674 669 667 663 660 656 653 649
753 754 754 755 756 756 756 756 755 753 751 750 748 747 745 744 743 742 740 739 735 731 729 726 721 716 712 709 705 701 697 693 689 686 682 678 673 669 666 664 660 656 655 652
751 752 753 754 755 754 753 753 751 750 748 748 747 745 744 743 742 741 739 736 734 730 727 724 720 715 710 707 704 700 696 691 685 682 678 676 674 671 666 664 661 658 655 653
750 751 752 753 752 752 752 750 749 748 746 746 746 745 744 742 741 740 739 736 733 729 727 724 719 714 710 706 701 697 693 690 684 681 677 675 673 669 666 663 661 658 656 656
748 750 750 750 750 750 749 749 747 747 746 745 745 744 743 742 741 739 737 735 732 729 726 722 719 714 710 706 701 697 692 688 684 682 678 675 673 670 667 665 665 664 660 658
747 747 747 747 747 747 747 747 746 745 745 744 744 743 741 741 740 738 736 734 731 728 724 721 717 714 710 706 702 697 693 688 686 681 677 675 671 668 668 666 665 664 661 660
745 744 745 744 744 744 744 745 745 744 744 743 742 741 741 739 738 737 735 732 730 727 724 721 717 714 711 707 703 700 695 691 686 684 679 675 671 671 670 669 666 664 664 663
Wind_Speed
16 17 6 9 17 12 17 20 11 25 13 14 7 10 7 6 3 5 6 9 10 11 12 19 20 24 28 27 29 30 29 27 28 31 26 19 7 9 16 26 41 46 42 41
5 12 15 19 25 20 22 22 21 23 22 5 4 2 4 6 2 5 7 9 10 12 16 18 20 22 25 28 29 29 26 27 30 30 26 18 17 15 14 17 33 41 42 43
8 3 5 8 23 21 9 4 10 10 13 7 3 6 5 5 4 4 7 9 10 11 15 20 22 23 23 26 28 28 26 27 28 28 25 23 15 12 13 14 32 36 41 41
3 2 6 5 1 2 8 5 10 4 5 6 5 5 4 4 4 5 6 9 9 13 18 22 23 24 25 25 23 23 23 23 27 28 25 23 17 15 16 12 18 32 35 40
4 6 9 12 6 7 8 8 11 14 6 5 4 3 5 6 4 5 5 9 13 18 20 22 21 24 26 25 23 21 26 28 30 29 25 22 21 21 19 15 8 27 31 34
3 5 7 6 3 4 3 7 6 10 11 9 7 2 3 3 3 4 9 14 18 18 21 19 22 23 23 23 24 25 28 30 31 29 24 21 23 23 20 14 13 12 28 31
18 14 8 5 7 4 6 7 3 5 4 6 5 4 3 1 3 9 12 14 16 18 17 20 22 21 20 22 22 28 31 31 29 29 28 27 23 21 18 15 12 11 24 29
7 6 14 9 7 8 3 2 5 4 5 5 4 1 1 2 3 6 10 14 17 15 16 22 22 19 20 19 26 29 32 32 34 32 27 22 21 21 19 13 9 11 20 24
11 6 2 17 2 3 3 5 5 6 5 6 5 3 1 2 4 6 12 13 15 15 18 22 22 19 19 24 26 28 29 28 28 27 24 19 18 19 17 17 12 10 9 15
2 4 4 13 2 6 4 4 5 4 5 6 5 4 2 3 4 5 11 12 14 18 16 18 23 24 23 23 27 26 25 28 29 27 25 23 21 18 18 17 15 14 8 12
3 2 2 6 7 9 7 7 8 5 4 5 5 3 4 2 4 9 12 12 16 16 16 20 25 26 26 24 27 26 25 26 24 24 24 26 24 21 20 17 15 14 13 7
5 3 1 0 10 11 11 7 6 5 3 2 4 3 2 2 7 10 12 16 18 18 20 24 27 27 26 24 24 24 22 23 25 24 26 21 22 23 21 18 17 11 9 11
2 4 6 8 7 3 6 5 4 5 3 3 2 2 0 2 7 9 14 16 19 20 22 25 25 26 24 25 25 26 22 25 23 24 22 20 21 17 17 26 15 9 9 9
7 6 6 2 3 5 7 5 5 6 6 4 2 2 2 2 7 10 13 17 19 21 22 22 23 23 23 25 24 26 24 20 21 22 21 22 20 17 16 15 15 18 16 12
6 5 4 7 5 5 5 3 3 3 3 3 4 5 5 7 9 13 16 16 18 21 20 21 21 23 23 25 24 27 25 22 23 23 22 22 22 19 18 17 15 14 16 14
5 6 6 6 4 3 3 3 3 2 2 3 8 9 10 12 13 14 14 14 16 18 24 20 20 24 23 27 25 24 21 21 25 21 22 20 19 18 17 15 15 13 12 15
5 2 2 1 3 2 3 2 2 2 4 7 10 11 13 14 14 12 14 15 17 20 19 18 20 22 22 25 26 25 17 22 21 21 17 18 18 16 16 16 14 14 13 16
3 3 4 5 5 4 3 4 5 5 5 8 13 13 13 12 9 16 16 17 19 18 17 17 22 20 25 22 23 18 21 23 21 18 18 18 19 17 17 17 15 15 16 15
2 5 4 4 5 4 3 4 4 6 11 11 12 13 14 15 15 15 14 16 16 15 19 21 20 22 24 23 19 19 25 21 20 19 18 17 17 18 17 17 16 16 16 16
3 3 3 2 4 5 5 6 7 11 12 10 11 13 13 14 12 12 13 13 14 13 18 21 18 26 22 23 15 21 20 19 18 18 17 16 17 16 17 16 15 15 15 14
3 3 3 5 5 6 8 8 9 12 13 12 10 12 13 14 11 10 10 8 13 15 17 14 23 21 27 9 19 20 19 19 18 18 18 17 16 16 16 16 15 14 14 12
4 4 6 5 5 7 6 6 10 12 11 10 10 10 10 9 7 9 8 9 16 16 12 19 19 19 16 19 21 19 19 18 17 18 17 17 16 16 16 15 14 13 11 10
8 5 5 6 7 6 8 9 5 6 8 8 9 6 7 8 6 7 5 15 16 19 12 20 17 19 19 22 20 18 18 18 17 18 18 16 15 14 14 14 13 11 10 9
5 7 6 4 4 5 5 4 8 8 8 7 2 6 7 9 10 6 11 13 13 16 16 18 19 17 19 21 19 19 17 17 16 17 18 14 13 12 11 11 11 10 8 6
6 5 5 5 5 8 6 7 7 5 6 1 4 7 7 6 5 12 14 13 13 15 18 16 16 16 20 19 19 18 16 15 17 16 15 14 12 11 9 7 7 8 5 4
7 7 6 7 9 8 8 5 6 8 7 5 8 10 6 5 8 10 11 11 13 14 14 16 17 16 18 18 17 17 16 15 13 16 13 11 10 9 8 8 7 5 5 3
6 7 5 5 5 4 5 6 5 4 4 7 11 7 5 8 9 11 11 11 13 15 14 15 16 15 16 16 17 17 16 15 13 13 11 11 10 8 7 5 5 4 3 4
Wind_Direction
242 258 203 244 252 199 208 229 229 270 240 259 241 214 227 226 264 303 311 319 320 323 324 324 328 326 324 328 331 335 331 329 328 316 318 313 353 281 272 212 195 194 192 192
263 243 240 247 257 246 232 239 246 261 270 218 206 215 222 236 245 305 309 315 318 321 321 322 325 324 324 328 331 329 327 329 329 318 323 327 21 306 281 234 204 192 190 192
265 5 338 264 247 239 225 193 204 212 244 158 196 213 218 220 211 264 291 309 318 317 316 319 320 321 324 326 328 330 330 334 323 318 326 349 352 320 310 273 201 199 189 191
258 24 256 251 186 158 216 227 218 282 220 189 185 218 228 216 198 248 278 311 311 312 314 316 319 323 325 327 330 329 325 328 324 321 329 345 339 341 322 303 216 199 193 191
237 199 298 296 190 169 173 259 203 218 187 194 176 83 294 206 209 226 242 274 295 312 310 315 319 326 326 326 330 332 335 332 326 322 328 330 345 340 330 319 286 202 195 192
155 226 242 233 216 200 139 283 189 185 181 165 155 198 251 205 244 275 301 316 316 322 327 322 326 330 329 327 330 337 334 327 321 322 323 331 350 332 323 321 291 225 196 198
231 238 268 190 159 152 121 243 137 143 140 144 175 192 200 271 300 307 312 321 324 328 326 324 330 331 327 327 329 331 329 325 321 327 337 349 345 328 325 324 297 262 195 194
220 239 254 140 103 182 187 25 127 125 154 153 166 153 223 266 287 310 317 324 329 324 324 329 337 332 325 325 328 333 330 329 331 337 333 342 334 336 333 332 320 253 192 175
197 214 99 180 127 147 142 140 168 141 164 150 143 175 196 272 306 306 317 317 329 326 322 326 336 333 321 324 332 334 330 328 322 323 330 332 342 328 333 340 345 324 195 173
142 187 193 186 162 151 159 143 144 136 142 151 153 167 224 277 295 306 317 319 328 327 321 318 329 331 327 329 334 335 326 325 323 326 328 341 344 340 343 340 340 351 338 189
260 119 79 215 197 164 147 130 117 114 131 146 145 174 181 242 287 304 315 322 328 323 317 315 327 327 332 337 340 334 328 323 322 324 328 340 340 340 334 330 336 323 306 290
225 153 121 291 164 154 151 146 139 136 124 110 137 145 137 265 291 300 311 328 329 325 324 323 326 327 333 340 341 334 322 323 322 328 339 331 331 338 345 342 339 331 292 280
161 75 78 89 81 71 110 112 109 115 123 131 88 99 126 252 299 316 326 326 324 319 319 321 323 324 334 339 340 340 322 320 323 325 323 334 332 336 333 335 336 337 334 307
69 97 85 77 128 80 103 93 102 100 93 93 60 28 20 316 312 317 317 321 319 318 317 321 321 322 335 340 338 337 329 325 318 321 329 332 319 335 317 309 318 330 347 338
39 38 86 107 80 71 73 61 86 77 12 344 0 342 339 332 317 312 317 321 318 315 319 327 324 324 336 340 338 335 332 326 326 330 330 327 331 323 311 316 313 320 338 343
89 72 74 93 101 68 84 38 108 286 317 303 319 318 323 319 311 308 314 324 322 312 318 322 320 325 332 338 336 330 329 332 332 328 326 323 323 314 312 312 311 310 336 331
94 58 83 99 167 188 191 211 206 221 283 291 296 312 315 317 315 315 320 327 322 314 314 314 319 323 330 336 332 326 329 326 327 327 317 314 308 304 316 313 312 311 333 328
128 126 142 148 166 187 248 237 239 273 266 304 310 310 307 309 291 306 314 322 321 319 322 328 333 324 327 330 333 326 333 328 324 319 318 314 312 324 325 319 334 335 345 338
126 146 159 154 170 183 219 253 266 290 300 310 305 299 302 297 297 302 312 315 313 318 321 331 328 323 327 331 323 328 329 327 325 325 322 321 323 330 328 332 335 337 343 350
121 129 149 197 218 225 261 283 294 300 310 311 307 300 299 299 305 307 315 305 304 312 315 322 324 325 328 335 331 329 330 329 327 327 326 328 331 328 334 339 336 343 345 352
183 182 216 229 254 260 262 289 294 293 308 311 297 290 292 301 304 311 316 311 318 326 326 329 328 323 326 338 340 339 334 330 333 332 329 327 330 335 333 338 342 348 348 350
196 207 229 236 251 275 282 292 295 295 300 308 314 301 297 301 313 324 321 304 325 322 325 338 331 326 332 353 344 340 338 332 334 338 337 336 335 334 336 336 344 349 351 349
190 208 215 226 240 266 301 316 328 305 291 295 314 325 337 334 331 327 325 339 330 324 353 343 332 325 349 346 345 341 342 339 337 340 341 340 337 333 337 339 341 350 0 355
200 217 228 233 243 282 309 319 325 327 303 286 325 341 331 332 326 343 341 333 328 330 341 338 332 333 345 344 346 345 343 344 343 343 340 335 339 343 343 345 343 352 4 4
211 215 225 221 248 265 276 315 316 326 354 4 339 347 327 318 308 327 336 338 336 335 335 343 340 340 344 349 348 346 345 344 348 339 342 343 343 348 350 360 2 353 4 17
201 222 242 251 256 275 285 286 286 308 305 298 318 342 329 332 333 336 336 338 340 342 344 350 352 347 351 356 349 356 355 351 351 354 344 350 353 353 354 358 3 8 21 37
236 237 236 267 266 271 265 262 247 302 318 305 301 317 318 329 336 339 342 347 353 352 353 355 358 358 353 355 6 11 11 11 6 355 4 4 6 1 0 358 19 33 54 105